Rock River, Yukon Territory

9:03 AM PST on December 18, 2017 (GMT -0800)
Rock River

Weather History for CWRR - October, 2013

Change the Weather History Date:

Wednesday, October 9, 2013

  Actual Average Record
Temperature  
Mean Temperature 28 °F -  
Max Temperature 32 °F - - ()
Min Temperature 25 °F - - ()
Degree Days  
Heating Degree Days 36    
Moisture  
Dew Point 27 °F    
Average Humidity 93    
Maximum Humidity 100    
Minimum Humidity 66    
Precipitation  
Precipitation 0.12 in - - ()
Sea Level Pressure  
Sea Level Pressure 29.14 in    
Wind  
Wind Speed 14 mph ()    
Max Wind Speed 29 mph    
Max Gust Speed 31 mph    
T = Trace of Precipitation, MM = Missing Value Source: Averaged Metar Reports

Daily Weather History Graph

Daily Weather History Graph

Search for Another Location

Airport or City:

Trip Planner

Search our weather history database for the weather conditions in past years. The results will help you decide how hot, cold, wet, or windy it might be!

Date:

Astronomy

Oct. 09, 2013 Rise Set
Actual Time 8:45 AM PDT 6:57 PM PDT
Civil Twilight 7:51 AM PDT 7:50 PM PDT
Nautical Twilight 6:50 AM PDT 8:52 PM PDT
Astronomical Twilight 5:44 AM PDT 9:57 PM PDT
Moon 3:57 PM PDT (10/9) 8:32 PM PDT (10/9)
Length of Visible Light 11h 58m
Length of Day
10h 11m
Waxing Crescent, 26% of the Moon is Illuminated
Oct 9
Waxing Crescent
Oct 11
First Quarter
Oct 18
Full
Oct 26
Last Quarter
Nov 3
New

Hourly Weather History & Observations

Time (PDT) Temp. Windchill Dew Point Humidity Pressure Visibility Wind Dir Wind Speed Gust Speed Precip Events Conditions
12:00 AM 31.3 °F 16.9 °F 21.6 °F 67% 29.17 in - ESE 28.8 mph - N/A   Unknown
1:00 AM 31.6 °F 18.7 °F 21.4 °F 66% 29.15 in - ESE 23.0 mph - N/A   Unknown
2:00 AM 31.5 °F 17.9 °F 22.8 °F 70% 29.12 in - ESE 25.3 mph 31.1 mph N/A   Unknown
3:00 AM 30.9 °F 17.5 °F 26.6 °F 84% 29.08 in - ESE 24.2 mph - N/A   Unknown
4:00 AM 31.6 °F 19.3 °F 28.0 °F 87% 29.05 in - ESE 20.7 mph - N/A   Unknown
5:00 AM 32 °F - 28 °F 79% 29.03 in - East 21.9 mph - -  
5:00 AM 31.8 °F 19.3 °F 28.0 °F 86% 29.03 in - East 21.9 mph - N/A   Unknown
6:00 AM 31.1 °F 20.1 °F 28.0 °F 88% 29.02 in - ESE 16.1 mph - N/A   Unknown
7:00 AM 27.9 °F 24.0 °F 26.8 °F 96% 29.01 in - ENE 3.5 mph - N/A   Unknown
8:00 AM 25.9 °F - 25.9 °F 100% 29.01 in - NNW 1.2 mph - N/A   Unknown
9:00 AM 25.3 °F 21.1 °F 25.2 °F 99% 29.01 in - NNW 3.5 mph - N/A   Unknown
10:00 AM 25.7 °F 21.5 °F 25.7 °F 100% 29.03 in - WNW 3.5 mph - N/A   Unknown
11:00 AM 27 °F - 27 °F 98% 29.03 in - Calm Calm - -  
11:00 AM 27.0 °F - 26.6 °F 99% 29.03 in - Calm Calm - N/A   Unknown
12:00 PM 27.7 °F - 26.4 °F 95% 29.05 in - WNW 1.2 mph - N/A   Unknown
1:00 PM 28.6 °F - 26.2 °F 91% 29.07 in - Calm Calm - N/A   Unknown
2:00 PM 29.7 °F - 27.1 °F 90% 29.10 in - Calm Calm - 0.06 in   Unknown
3:00 PM 28.8 °F 19.0 °F 28.6 °F 99% 29.13 in - West 11.5 mph - 0.05 in   Unknown
4:00 PM 28.8 °F 17.9 °F 28.8 °F 100% 29.16 in - WNW 13.8 mph - N/A   Unknown
5:00 PM 28 °F - 28 °F 100% 29.19 in - WNW 16.1 mph - -  
5:00 PM 28.2 °F 15.9 °F 28.2 °F 100% 29.19 in - WNW 17.3 mph - N/A   Unknown
6:00 PM 27.9 °F 16.3 °F 27.9 °F 100% 29.23 in - WNW 15.0 mph - N/A   Unknown
7:00 PM 27.9 °F 15.9 °F 27.9 °F 100% 29.26 in - WNW 16.1 mph 23.0 mph N/A   Unknown
8:00 PM 27.1 °F 14.9 °F 27.1 °F 100% 29.30 in - West 16.1 mph - N/A   Unknown
9:00 PM 27.0 °F 12.8 °F 27.0 °F 100% 29.33 in - WNW 21.9 mph - N/A   Unknown
10:00 PM 26.8 °F 14.5 °F 26.8 °F 100% 29.36 in - West 16.1 mph - N/A   Unknown
11:00 PM 27 °F - 27 °F 98% 29.37 in - West 18.4 mph - -  
11:00 PM 26.6 °F 13.8 °F 26.6 °F 100% 29.38 in - West 17.3 mph - N/A   Unknown